Regional Weather Roundup
Issued by NWS

Home | Current Version | Previous Version | Graphics & Text | Print | Product List | Glossary On
Versions: 1 2 3 4 5 6 7 8 9 10 11 12 13 14 15 16 17 18 19 20 21 22 23 24 25 26 27 28
000
ASUS45 KTFX 091310
RWRMT
MONTANA REGIONAL WEATHER ROUNDUP
NATIONAL WEATHER SERVICE GREAT FALLS MT
600 AM MST FRI DEC 09 2016

NOTE: "FAIR" INDICATES FEW OR NO CLOUDS BELOW 12000 FEET WITH NO
SIGNIFICANT WEATHER AND/OR OBSTRUCTIONS TO VISIBILITY.

MTZ001>007-043-091400-
WEST OF THE DIVIDE

CITY           SKY/WX    TMP DP  RH WIND       PRES   REMARKS
KALISPELL      MIX PCPN   4  -6  63 N14       30.23S WCI -14
MISSOULA       LGT SNOW  12   5  73 E13       30.18R WCI  -3
BUTTE          CLOUDY     2  -3  80 S8        30.01S WCI -12
MULLAN PASS    LGT SNOW   2  -2  83 SE9       29.89S FOG     WCI -13
ANACONDA         N/A      1  -2  85 W5        30.02F
DEER LODGE       N/A      3   0  85 NW5       30.09S
EUREKA           N/A     -6  -9  84 CALM      30.31S
HAMILTON         N/A     12   9  85 N3        30.12R
LIBBY            N/A      9   3  78 CALM      30.25F
PLAINS           N/A     13   3  64 N2        30.21F
RONAN            N/A     11   5  76 N7        30.18S WCI   0
$$

MTZ008-052>055-091400-
SOUTHWEST MONTANA

CITY           SKY/WX    TMP DP  RH WIND       PRES   REMARKS
BOZEMAN        FLURRIES   4   0  83 W3        30.15S
DILLON         CLOUDY     2  -2  83 NE5       30.05S
W YELLOWSTONE  CLOUDY     9   7  92 N3        30.03S FOG
ENNIS          CLOUDY     3   0  85 CALM      30.09R
THREE FORKS      N/A      3 -39  12 NW5       30.14S
TWIN BRIDGES     N/A      5  -6  60 N2        30.06S
$$

MTZ009-010-012-014-046-048-049-054-091400-
EAST SLOPES AND CENTRAL MONTANA

CITY           SKY/WX    TMP DP  RH WIND       PRES   REMARKS
CUT BANK       CLOUDY    -5  -8  87 SE3       30.27F
GREAT FALLS    CLOUDY    -3  -8  79 N5        30.28S
MALMSTROM AFB  FLURRIES  -3  -6  86 NE5       30.31S
HELENA         LGT SNOW   0  -5  79 W5        30.22F
AUGUSTA        LGT SNOW  -5  -9  84 S1        30.19S
BOWMANS CRNR   LGT SNOW  -6  -9  86 NE6       30.18F WCI -19
CHOTEAU          N/A     -4  -8  84 MISG      30.27F
CONRAD           N/A     -3  -7  83 N2        30.26F
FAIRFIELD      FLURRIES  -4  -9  79 NE3       30.25F
POWER          FLURRIES  -5 -10  82 N6        30.26F WCI -18
RAYNESFORD     FLURRIES  -4  -8  82 NW3       30.24S
ULM            LGT SNOW  -3  -7  81 NE3G13    30.29F
$$

MTZ011-013-016-021-045-047-050-051-091400-
NORTH CENTRAL MONTANA

CITY           SKY/WX    TMP DP  RH WIND       PRES   REMARKS
HAVRE          CLOUDY     0  -5  79 E10       30.42S WCI -16
LEWISTOWN      FLURRIES   0  -5  79 CALM      30.21S
N BAR RANCH    CLOUDY    -2  -9  71 E6        30.21S HAZE    WCI -14
CHINOOK          N/A     -2  -8  78 E6        30.46S WCI -14
DENTON         FLURRIES  -2  -6  84 W9        30.25S WCI -18
GEYSER         LGT SNOW  -2  -6  84 N1        30.22F
GRASS RANGE    LGT SNOW  -3  -6  85 E3        30.24S
JUDITH GAP     LGT SNOW   0  -5  80 MISG      30.15S
ROY            LGT SNOW  -3  -6  84 MISG      30.28F
STANFORD       LGT SNOW  -4  -7  87 N6        30.19S WCI -16
WINIFRED       LGT SNOW  -2  -5  87 MISG      30.27S
$$

MTZ017>020-022>027-061-062-091400-
NORTHEAST MONTANA

CITY           SKY/WX    TMP DP  RH WIND       PRES   REMARKS
GLASGOW        CLOUDY    -4  -9  79 E13       30.49S WCI -23
JORDAN           N/A     -9 -14  78 E5        30.42F
SIDNEY         CLOUDY   -18 -23  77 CALM      30.56
WOLF POINT     CLOUDY   -13 -20  71 CALM      30.57R
PLENTYWOOD       N/A     -8 -11  84 CALM      30.51R
POPLAR           N/A    -11 -18  70 CALM      30.57R
SCOBEY           N/A     -4 -13  65 CALM      30.43S
$$

MTZ028>42-056>058-091400-
SOUTHCENTRAL AND SOUTHEAST MONTANA

CITY           SKY/WX    TMP DP  RH WIND       PRES   REMARKS
BAKER          CLOUDY   -13 -18  78 SE3       30.40R
BILLINGS       LGT SNOW   1  -3  83 NE7       30.26S FOG     WCI -12
LIVINGSTON     LGT SNOW   4  -1  80 E7        30.14S WCI  -8
MILES CITY     CLOUDY    -5 -10  79 NE9       30.41S WCI -22
BIG TIMBER     CLOUDY     3   0  85 E3        30.20S FOG
EKALAKA          N/A     -6 -15  65 SE3       30.23
FORSYTH          N/A     -4  -8  84 E5        30.39S
HARLOWTON      FLURRIES   0  -4  83 SE5       30.19S
LAUREL           N/A      4  -5  66 NE3       30.21S
$$

REGIONAL REPORTS...DAKOTAS

CITY           SKY/WX    TMP DP  RH WIND       PRES   REMARKS
WILLISTON      CLOUDY   -16 -20  82 CALM      30.56R
MINOT          CLOUDY   -11 -15  82 W7        30.52F WCI -26
DICKINSON      ICE FOG  -21 -25  81 SW3       30.44R VSB 1/2
BEACH          HAZE     -18 -22  83 CALM      30.47R VSB 1
CROSBY         MOCLDY   -17 -20  83 NW10      30.56S WCI -37
TIOGA          MOCLDY   -17 -20  83 W6        30.51R WCI -31
WATFORD CITY     N/A    -20 -27  69 SW5       30.54R
BISMARCK       CLOUDY   -12 -16  82 CALM      30.56S
GRAND FORKS    CLOUDY     2  -5  72 W9        30.57S WCI -13
FARGO          CLOUDY     8   1  73 NW9       30.57S WCI  -5
BUFFALO SD       N/A     -8 -12  83 NE7       30.28S WCI -23
RAPID CITY     LGT SNOW  -1  -6  79 N9        30.31F WCI -16
$$

REGIONAL REPORTS...WYOMING/IDAHO/WASHINGTON

CITY           SKY/WX    TMP DP  RH WIND       PRES   REMARKS
GILLETTE       CLOUDY    -3  -7  82 NW5       30.16S
SHERIDAN       CLOUDY     3  -2  79 CALM      30.22R
BUFFALO WY     CLOUDY     1  -4  79 N8        30.11F WCI -13
CODY           LGT SNOW  -1  -4  87 SE5       30.11S FOG
YELLOWSTONE LA   N/A     17  15  92 VRB3      30.01R
IDAHO FALLS    CLOUDY    20  16  84 N5        30.13S
SALMON         CLOUDY    10   7  85 CALM      30.13F
BOISE          CLOUDY    26  23  88 CALM      30.13F
SPOKANE        FLURRIES  17  12  80 NE7       30.13R WCI   8
$$

REGIONAL REPORTS...ALBERTA

CITY           SKY/WX    TMP DP  RH WIND       PRES   REMARKS
EDMONTON       PTCLDY   -17 -24  70 SE2       30.49F
CALGARY        CRYSTALS  -9 -15  77 S7        30.29S WCI -24
LETHBRIDGE     FLURRIES  -6  -9  84 E3        30.38S
MEDICINE HAT   LGT SNOW  -4  -9  77 E6        30.48F WCI -16
WATERTON GATE    N/A    -26 -33  68 CALM        N/A
CARDSTON         N/A    -13 -20  70 SW6         N/A  WCI -27
MILK RIVER       N/A     -6  -9  84 E1          N/A
$$

REGIONAL REPORTS...SASKATCHEWAN

CITY           SKY/WX    TMP DP  RH WIND       PRES   REMARKS
SWIFT CURRENT  FLURRIES  -8  -9  92 N6        30.45S WCI -21
REGINA         CLEAR    -18 -24  76 NW7       30.56F WCI -35
SASKATOON      CRYSTALS -13 -18  77 W5        30.63S
VAL MARIE        N/A     -8 -13  77 E1          N/A
ROCKGLEN         N/A     -6  -8  92 N2          N/A
$$




USA.gov is the U.S. government's official web portal to all federal, state and local government web resources and services.